Home > Weather > Lüneburg > Past weeks

Flag for Germany Past Weather in Lüneburg, Lower Saxony, Germany — Yesterday and Last 2 Weeks

Now
66 °F

Broken clouds.


Feels Like: 66 °F
Forecast: 53 / 70 °F
Wind: 20 mph from West

Location: Fassberg

Current Time: Jun 29, 2016 at 4:44:40 PM

Latest Report: Jun 29, 2016 at 3:20 PM


Visibility: N/A

Pressure: 29.89 "Hg

Humidity: 60%

Dew Point: 52 °F

Location of LüneburgLocation

Past Weather in Lüneburg — Graph

°F

Lüneburg Temperature Yesterday

Maximum temperature yesterday: 68 °F (at 6:20 PM)
Minimum temperature yesterday: 54 °F (at 11:20 PM)
Average temperature yesterday: 60 °F

High & Low Weather Summary for the Past Weeks

 TemperatureHumidityPressure
High90 °F (Jun 23, 3:20 PM)100% (Jun 15, 7:20 AM)30.24 "Hg (Jun 15, 7:20 AM)
Low41 °F (Jun 20, 5:20 AM)38% (Jun 20, 2:20 PM)29.45 "Hg (Jun 14, 3:20 PM)
Average63 °F77%29.92 "Hg
* Reported Jun 14 2:20 PM — Jun 29 2:20 PM, Lüneburg, Weather by CustomWeather, © 2016

Note: Actual official high and low records may vary slightly from our data, if they occured in-between our weather recording intervals... More about our weather records

Advertising

Lüneburg Weather History for the Previous 24 Hours

Scroll right to see more
 ConditionsComfort  
Time TempWeatherWind HumidityBarometerVisibility
2:20 PM
Wed, Jun 29
66 °FScattered clouds.17 mph60%29.86 "HgN/A
1:20 PM64 °FBroken clouds.18 mph64%29.86 "HgN/A
12:20 PM64 °FScattered clouds.13 mph68%29.83 "HgN/A
11:20 AM66 °FScattered clouds.16 mph64%29.83 "HgN/A
10:20 AM64 °FScattered clouds.12 mph78%29.83 "HgN/A
9:20 AM61 °FScattered clouds.8 mph88%29.80 "HgN/A
9:01 AM63 °FPartly sunny.8 mph83%29.80 "HgN/A
8:20 AM61 °FPartly sunny.3 mph88%29.80 "HgN/A
7:20 AM57 °FRain showers. Partly sunny.5 mph94%29.80 "Hg1 mi
6:49 AM57 °FRain showers. Broken clouds.2 mph94%29.77 "Hg2 mi
6:20 AM57 °FBroken clouds.3 mph88%29.80 "HgN/A
5:20 AM57 °FRain. Mostly cloudy.6 mph88%29.80 "Hg6 mi
4:20 AM55 °FOvercast.10 mph88%29.80 "HgN/A
3:20 AM55 °FLight rain. Partly cloudy.8 mph82%29.83 "HgN/A
2:20 AM57 °FPartly cloudy.7 mph67%29.86 "HgN/A
1:20 AM57 °FPassing clouds.6 mph72%29.89 "HgN/A
12:20 AM55 °FPassing clouds.6 mph77%29.92 "HgN/A
11:20 PM
Tue, Jun 28
54 °FPassing clouds.6 mph82%29.92 "HgN/A
10:20 PM55 °FBroken clouds.3 mph82%29.95 "HgN/A
9:20 PM59 °FBroken clouds.5 mph72%29.95 "HgN/A
8:20 PM63 °FPartly sunny.5 mph68%29.98 "HgN/A
7:20 PM66 °FBroken clouds.2 mph43%29.98 "HgN/A
6:20 PM68 °FPartly sunny.2 mph38%30.01 "HgN/A
5:20 PM66 °FPartly sunny.2 mph43%30.04 "HgN/A
4:20 PM66 °FScattered clouds.3 mph43%30.04 "HgN/A
Weather by CustomWeather, © 2016

See weather overviewHow to use our weather pages